Find Starlink 34853

NORAD ID: 65892 Int'l Des: 2025-224 Owner: SPXS Country: US Constellation: starlink operational
LEOCIRCULAR

現在のビュー

3D地球を読み込み中...

About Starlink 34853

Starlink 34853 (NORAD 65892) is a starlink constellation satellite (v2 mini) launched Oct 7, 2025 by SPXS of US. It operates in LEO, CIRCULAR orbit with a mass of 575.00 kg.

次回通過

Passes for default location (London). Set your location on the main map for personalized predictions.

高度履歴

Loading altitude history...

軌道要素

1 65892U 25224L 26265.25779046 .00012853 00000-0 39081-3 0 9999
2 65892 53.1585 173.7832 0001160 95.1477 264.9658 15.34405090 54966
Epoch: Sep 22, 2026 • Age: 13 hours

現在のステータス

高度 463.0 km
遠地点 / 近地点 N/A
速度 7.64 km/s
衛星直下点 5.62°N, 106.95°W
打ち上げ日 Oct 7, 2025
運用期間 0.9 years
タイプ internet

技術仕様

分類 Payload
質量 575.00 kg
乾燥質量 530.00 kg
長さ 0.30 m
スパン 29.00 m
形状 ? Box + pan
製造者 SPXS
バスタイプ Starlink V2MO
フェーズステータス In Orbit
所有者/国 SPXS/US

Most Searched